Regional Weather Roundup
Issued by NWS

Home | Current Version | Previous Version | Text Only | Print | Product List | Glossary Off
Versions: 1 2 3 4 5 6 7 8 9 10 11 12 13 14 15 16 17 18 19 20 21 22 23 24 25 26 27 28 29 30 31 32 33 34 35 36 37 38 39 40 41 42 43 44 45 46 47 48 49 50

000
ASUS43 KFSD 021902
RWRSD

WEATHER ROUNDUP FOR SOUTH DAKOTA
NATIONAL WEATHER SERVICE SIOUX FALLS SD
100 PM CST FRI DEC 02 2016

NOTE: "FAIR" INDICATES FEW OR NO CLOUDS BELOW 12,000 FEET WITH NO
SIGNIFICANT WEATHER AND/OR OBSTRUCTIONS TO VISIBILITY.


SDZ001>005-009-010-012>017-022000-
NORTHWEST AND NORTH CENTRAL SOUTH DAKOTA

CITY           SKY/WX    TMP DP  RH WIND       PRES   REMARKS
BUFFALO          N/A     34  27  75 W16       30.11S WCI  24
FAITH            N/A     28  26  92 S5        30.19F WCI  23
MOBRIDGE       CLOUDY    29  23  78 E7        30.23S WCI  22
$$

SDZ012>016-024>037-041>051-057-063-072>074-022000-
SOUTHWEST AND SOUTH CENTRAL SOUTH DAKOTA

CITY           SKY/WX    TMP DP  RH WIND       PRES   REMARKS
RAPID CTY ARPT CLOUDY    37  24  59 NW14      30.20R
PIERRE         CLOUDY    30  27  88 SE3       30.24F
CUSTER         CLOUDY    33  13  43 VRB3      30.13S
ELLSWORTH AFB  CLOUDY    36  25  65 NW10      30.19S
PHILIP         CLOUDY    31  26  82 CALM      30.23S
PINE RIDGE     CLOUDY    36  27  69 CALM      30.21S
SPEARFISH      FAIR      34  23  64 NW5       30.19S WCI  30
WINNER         MOCLDY    34  25  69 CALM      30.26R
$$

SDZ004>011-016>023-039-040-022000-
NORTHEAST SOUTH DAKOTA

CITY           SKY/WX    TMP DP  RH WIND       PRES   REMARKS
ABERDEEN       CLOUDY    29  20  69 NW7       30.27S WCI  22
WATERTOWN      CLOUDY    26  19  74 N7        30.23F WCI  18
SISSETON         N/A     28  21  75 N6        30.26S WCI  22
$$

SDZ017-020-022-023-036>040-048>070-022000-
SOUTHEAST SOUTH DAKOTA

CITY           SKY/WX    TMP DP  RH WIND       PRES   REMARKS
SIOUX FALLS    CLOUDY    34  27  75 NW8       30.25F WCI  27
HURON          CLOUDY    31  24  75 NE5       30.28S WCI  26
CHAMBERLAIN    CLOUDY    33  30  91 E3        30.27R
MITCHELL       CLOUDY    32  28  85 N8        30.29S WCI  25
YANKTON        CLOUDY    36  25  64 W6        30.27F
$$

ABBREVIATIONS USED IN REMARKS
   TC - TEMPERATURE IN CELSIUS
  WCI - WIND CHILL INDEX
   HX - HEAT INDEX
  VSB - VISIBILITY





USA.gov is the U.S. government's official web portal to all federal, state and local government web resources and services.